Flag for U.S.A. Weather past 2 weeks in Corpus Christi, Texas, U.S.A.

73 °F

Passing clouds.

Feels Like: 73 °F
Forecast: 70 / 87 °F
Wind: 6 mph from South

Location: Corpus Christi International Airport

Current Time: Oct 6, 2015 at 10:26:41 PM

Latest Report: Oct 6, 2015 at 9:51 PM

Visibility: 10 mi

Pressure: 30.02 "Hg

Humidity: 79%

Dew point: 66 °F

Location of Corpus ChristiLocation

Historic Weather in Corpus Christi — Graph


Corpus Christi temperature yesterday

Maximum temperature yesterday: 87 °F (at 3:51 PM)
Minimum temperature yesterday: 64 °F (at 3:51 AM)
Average temperature yesterday: 75 °F

Past Weeks' High & Low Weather Summary

High95 °F (Oct 1, 2:51 PM)97% (Oct 2, 4:51 AM)30.11 "Hg (Oct 2, 4:51 AM)
Low62 °F (Oct 4, 5:51 AM)35% (Oct 5, 3:51 PM)29.72 "Hg (Sep 28, 4:51 PM)
Average78 °F69%29.92 "Hg
* Reported Sep 21 8:51 PM — Oct 6 8:51 PM, Corpus Christi, Weather by CustomWeather, © 2015

Note: Actual official high and low records may vary slightly from our data, if they occured in-between our weather recording intervals... More about our weather records


Corpus Christi weather history for previous 24 hours

Time TempWeatherWind HumidityBarometerVisibility
8:51 PM
Tue, Oct 6
76 °FPassing clouds.8 mph74%30.01 "Hg10 mi
7:51 PM79 °FPartly sunny.9 mph60%29.99 "Hg10 mi
6:51 PM82 °FPartly sunny.10 mph56%29.99 "Hg10 mi
5:51 PM85 °FPartly sunny.7 mph50%29.99 "Hg10 mi
4:51 PM86 °FPartly sunny.10 mph49%29.99 "Hg10 mi
3:51 PM87 °FScattered clouds.9 mph46%30.01 "Hg10 mi
2:51 PM88 °FScattered clouds.10 mph42%30.02 "Hg10 mi
1:51 PM87 °FScattered clouds.8 mph43%30.05 "Hg10 mi
12:51 PM86 °FScattered clouds.6 mph43%30.08 "Hg10 mi
11:51 AM83 °FScattered clouds.7 mph51%30.09 "Hg10 mi
10:51 AM81 °FScattered clouds.6 mph53%30.11 "Hg10 mi
9:51 AM75 °FPartly sunny.6 mph62%30.10 "Hg10 mi
8:51 AM71 °FPartly sunny.5 mph73%30.08 "Hg10 mi
7:51 AM65 °FPassing clouds.5 mph87%30.07 "Hg10 mi
6:51 AM66 °FPassing clouds.3 mph87%30.05 "Hg10 mi
5:51 AM67 °FPassing clouds.3 mph87%30.04 "Hg10 mi
4:51 AM67 °FClear.5 mph87%30.03 "Hg10 mi
3:51 AM66 °FClear.5 mph90%30.03 "Hg10 mi
2:51 AM67 °FPassing clouds.7 mph85%30.04 "Hg10 mi
1:51 AM67 °FPassing clouds.6 mph85%30.03 "Hg10 mi
12:51 AM69 °FPassing clouds.6 mph81%30.03 "Hg10 mi
11:51 PM
Mon, Oct 5
70 °FPassing clouds.No wind76%30.04 "Hg10 mi
10:51 PM70 °FPassing clouds.5 mph79%30.03 "Hg10 mi
Weather by CustomWeather, © 2015

See weather overviewHow to use our weather pages